Location: ??????????
(44.2167°N, 135.5333°E)
Time: 13:53:39
(UTC+00:00)

Cosmos 1607 - Pass Details

Date: 15 June 2025
Orbit: 931 x 971 km, 65.0° (Epoch: 16 July)

Event Time Altitude Azimuth Distance (km) Brightness Sun altitude
Exits shadow 18:03:20 11° 202° (SSW) 2,609 5.7 -10.3°
Maximum altitude 18:09:21 70° 121° (ESE) 1,005 4.2 -9.6°
Drops below altitude 10° 18:15:31 10° 39° (NE) 2,657 8.0 -8.8°
Sets 18:18:03 0° 37° (NE) 3,600 9.2 -8.5°
